[[{"header":{"parameterUnit":"m.s-1","parameterCategory":1,"la1":30.2991,"la2":30.254,"lo1":-89.0895,"lo2":-89.0444,"dy":0.0017,"dx":0.0017,"nx":28,"ny":28,"refTime":"2024-08-20T21:00:00:Z","depth":0,"parameterNumber":2,"parameterNumberName":"U-component_of_WINDS"},"data":[0,0,0,0,0,0,0,0,0,0,0,0,0,0,0,0,0,0,0,0,0,0,0,0,0,0,0,0,0,0,0,0,0,0,0,0,0,0,0,0,0,0,0,0,0,0,0,0,0,0,0,0,0,0,0,0,0,0,-1.2009,-1.2008,0,-1.1926,-1.1925,-1.1924,-1.1823,-1.1822,-1.182,-1.1819,-1.1733,-1.1732,-1.1731,0,0,0,0,0,0,0,0,0,0,0,0,0,-1.208,-1.2079,-1.2009,-1.2008,-1.2007,-1.1926,-1.1925,-1.1923,-1.1824,-1.1822,-1.182,-1.1818,-1.1733,-1.1732,-1.1731,0,0,0,0,0,0,0,0,0,0,0,0,0,-1.2028,-1.2079,-1.2009,-1.1947,-1.1941,-1.1926,-1.1925,-1.1923,-1.1824,-1.1822,-1.1819,-1.1817,-1.1733,-1.1732,-1.1731,-1.177,0,0,-1.1727,-1.1726,0,0,0,0,0,0,0,0,-1.2032,-1.2026,-1.1958,-1.1952,-1.1945,-1.1883,-1.1918,-1.1872,-1.1825,-1.1869,-1.1819,-1.1816,-1.1784,-1.1779,-1.1768,-1.1766,-1.1762,-1.1727,-1.1726,-1.1726,-1.1725,0,0,0,0,0,0,0,-1.2035,-1.2029,-1.1976,-1.1957,-1.1949,-1.1923,-1.1913,-1.1909,-1.1841,-1.1865,-1.1857,-1.1849,-1.178,-1.177,-1.1766,-1.1761,-1.1727,-1.1726,-1.1725,-1.1725,-1.1783,-1.1785,0,0,0,0,0,0,-1.2048,-1.2033,-1.1979,-1.1973,-1.1983,-1.1924,-1.1913,-1.1905,-1.184,-1.1828,-1.1851,-1.1844,-1.1773,-1.1767,-1.1762,-1.1801,-1.1726,-1.1724,-1.1724,-1.1781,-1.1783,-1.1786,0,0,0,0,0,0,-1.205,-1.2044,-1.1982,-1.2001,-1.1991,-1.1925,-1.1917,-1.1904,-1.1894,-1.183,-1.1817,-1.1852,-1.1771,-1.1764,-1.1768,-1.1797,-1.1724,-1.1723,-1.1778,-1.1781,-1.1785,-1.1882,0,0,0,0,0,0,-1.2053,-1.2046,-1.206,-1.2002,-1.199,-1.199,-1.1919,-1.1904,-1.1892,-1.1883,-1.1828,-1.1817,-1.1769,-1.177,-1.1767,-1.1794,-1.1722,-1.1775,-1.178,-1.1784,-1.1876,-1.1888,-1.1899,0,0,0,0,0,-1.2056,-1.2091,-1.2062,-1.2056,-1.2007,-1.1992,-1.1985,-1.1929,-1.1895,-1.1908,-1.1867,-1.1819,-1.1795,-1.1772,-1.1767,-1.1794,-1.1773,-1.1778,-1.1783,-1.187,-1.1886,-1.1899,0,0,0,0,0,0,-1.2155,-1.2083,-1.2049,-1.2067,-1.2036,-1.1975,-1.1991,-1.1948,-1.1926,-1.1919,-1.185,-1.1838,-1.185,-1.1823,-1.1798,-1.1827,-1.1777,-1.1781,-1.1845,-1.1858,-1.187,-1.1876,-1.1721,0,0,0,0,0,-1.2179,-1.2173,-1.211,-1.2132,-1.2118,-1.2058,-1.2049,-1.2008,-1.1974,-1.196,-1.1919,-1.1888,-1.1872,-1.1864,-1.1847,-1.1871,-1.1857,-1.1887,-1.1899,-1.1909,-1.1913,-1.1922,-1.1934,-1.1803,-1.1803,-1.1803,0,0,-1.2228,-1.2188,-1.2189,-1.2151,-1.2122,-1.2117,-1.2047,-1.2045,-1.204,-1.196,-1.1961,-1.193,-1.1889,-1.1903,-1.1907,-1.1881,-1.1946,-1.1916,-1.1924,-1.1923,-1.1928,-1.1941,-1.1952,-1.1807,-1.1806,-1.1805,0,0,-1.2315,-1.2285,-1.2299,-1.2272,-1.223,-1.2189,-1.2192,-1.2137,-1.2113,-1.2113,-1.2053,-1.2045,-1.2022,-1.1995,-1.1978,-1.2054,-1.2008,-1.205,-1.211,-1.2119,-1.213,-1.2138,-1.2164,-1.2174,-1.2055,-1.2055,-1.2055,0,-1.2382,-1.2372,-1.2312,-1.2313,-1.2297,-1.2224,-1.2237,-1.2214,-1.2168,-1.2159,-1.2129,-1.2097,-1.2065,-1.207,-1.2089,-1.2078,-1.2079,-1.2055,-1.2133,-1.2141,-1.2149,-1.2172,-1.2182,-1.206,-1.206,-1.2059,-1.2059,0,-1.2455,-1.2449,-1.2465,-1.2422,-1.2409,-1.2416,-1.2356,-1.235,-1.231,-1.2272,-1.2272,-1.2231,-1.2203,-1.2202,-1.2163,-1.2201,-1.2185,-1.2146,-1.2094,-1.2167,-1.2188,-1.2196,-1.2068,-1.2066,-1.2064,-1.2063,0,0,-1.2602,-1.2525,-1.2532,-1.2511,-1.2459,-1.2453,-1.2456,-1.2429,-1.2423,-1.2395,-1.2394,-1.2375,-1.2338,-1.2319,-1.2276,-1.2285,-1.2345,-1.2243,-1.2241,-1.2262,-1.2382,-1.2411,-1.2423,-1.2315,-1.2316,-1.2317,-1.2385,0,-1.2678,-1.2679,-1.2625,-1.2641,-1.2633,-1.2564,-1.2566,-1.2534,-1.2499,-1.2486,-1.2447,-1.2433,-1.2386,-1.2373,-1.2379,-1.2337,-1.2368,-1.2331,-1.2312,-1.2312,-1.2323,-1.2433,-1.2465,-1.253,-1.2393,-1.2394,-1.2395,0,-1.2767,-1.2743,-1.2758,-1.2703,-1.2698,-1.2702,-1.2671,-1.2661,-1.2623,-1.2596,-1.2574,-1.2526,-1.2524,-1.2476,-1.2471,-1.2447,-1.2436,-1.2414,-1.2415,-1.241,-1.2357,-1.243,-1.255,-1.2559,-1.2407,-1.2406,-1.2405,0,-1.287,-1.2842,-1.2846,-1.2831,-1.2768,-1.2772,-1.2745,-1.2704,-1.2691,-1.2665,-1.2655,-1.2629,-1.2614,-1.2595,-1.254,-1.251,-1.2541,-1.2488,-1.2517,-1.2519,-1.2526,-1.2526,-1.2644,-1.2522,-1.2522,-1.2522,-1.2521,0,-1.296,-1.2972,-1.2892,-1.2895,-1.2905,-1.2842,-1.2854,-1.2821,-1.2785,-1.2779,-1.2718,-1.2714,-1.2643,-1.263,-1.2588,-1.2589,-1.2583,-1.256,-1.2549,-1.2565,-1.2568,-1.2556,-1.2549,-1.2524,-1.2524,-1.2523,-1.2523,0,-1.3077,-1.3024,-1.3025,-1.2965,-1.295,-1.296,-1.2908,-1.2908,-1.2868,-1.2862,-1.2857,-1.2795,-1.2776,-1.272,-1.2688,-1.2659,-1.2673,-1.2652,-1.2686,-1.2678,-1.2709,-1.2706,-1.2823,-1.2834,-1.2707,-1.2708,-1.2709,0,-1.3137,-1.3144,-1.3085,-1.3077,-1.3054,-1.3042,-1.3027,-1.2966,-1.2953,-1.2909,-1.2914,-1.2891,-1.2869,-1.2843,-1.2794,-1.2769,-1.2745,-1.2788,-1.2741,-1.2756,-1.2743,-1.2743,-1.2742,-1.2798,-1.2799,-1.2801,-1.2802,0,-1.3249,-1.3222,-1.3204,-1.3177,-1.3162,-1.3137,-1.3109,-1.3106,-1.3037,-1.3026,-1.3006,-1.299,-1.2956,-1.2934,-1.29,-1.2872,-1.2825,-1.2817,-1.2822,-1.2838,-1.2857,-1.2845,-1.2712,-1.2814,-1.2813,-1.2812,-1.2812,-1.2811,-1.3337,-1.334,-1.3298,-1.328,-1.3252,-1.3227,-1.3223,-1.3183,-1.3166,-1.3134,-1.3099,-1.3083,-1.3043,-1.2993,-1.2968,-1.2954,-1.2929,-1.2937,-1.2938,-1.2941,-1.2947,-1.2861,-1.2948,-1.2947,-1.2947,-1.2947,-1.2946,0,-1.3444,-1.3414,-1.3398,-1.336,-1.3345,-1.3303,-1.327,-1.326,-1.3247,-1.3213,-1.3193,-1.317,-1.3147,-1.3097,-1.3069,-1.3067,-1.3045,-1.3062,-1.306,-1.3054,-1.2973,-1.297,-1.308,-1.308,-1.308,-1.308,-1.308,-1.308,-1.3497,-1.3499,-1.3467,-1.3453,-1.3422,-1.3407,-1.3391,-1.3367,-1.334,-1.3317,-1.3298,-1.3265,-1.3224,-1.3192,-1.3169,-1.3155,-1.3146,-1.317,-1.3149,-1.3073,-1.306,-1.3048,-1.3045,-1.3169,-1.3169,-1.3231,-1.3231,-1.3232]},{"header":{"parameterUnit":"m.s-1","parameterCategory":1,"la1":30.2991,"la2":30.254,"lo1":-89.0895,"lo2":-89.0444,"dy":0.0017,"dx":0.0017,"nx":28,"ny":28,"refTime":"2024-08-20T21:00:00:Z","depth":0,"parameterNumber":3,"parameterNumberName":"V-component_of_WINDS"},"data":[0,0,0,0,0,0,0,0,0,0,0,0,0,0,0,0,0,0,0,0,0,0,0,0,0,0,0,0,0,0,0,0,0,0,0,0,0,0,0,0,0,0,0,0,0,0,0,0,0,0,0,0,0,0,0,0,0,0,-3.5906,-3.5907,0,-3.5989,-3.599,-3.5991,-3.5943,-3.5941,-3.5939,-3.5937,-3.6019,-3.6023,-3.6027,0,0,0,0,0,0,0,0,0,0,0,0,0,-3.57,-3.5704,-3.5906,-3.5907,-3.5908,-3.5989,-3.599,-3.5991,-3.5944,-3.5941,-3.5938,-3.5935,-3.6017,-3.6022,-3.6027,0,0,0,0,0,0,0,0,0,0,0,0,0,-3.5787,-3.5706,-3.5905,-3.5894,-3.5894,-3.5989,-3.599,-3.5992,-3.5944,-3.5941,-3.5937,-3.5934,-3.6015,-3.6022,-3.6028,-3.6138,0,0,-3.6048,-3.6051,0,0,0,0,0,0,0,0,-3.5782,-3.5795,-3.5895,-3.5895,-3.5895,-3.5952,-3.5948,-3.6041,-3.5945,-3.5925,-3.5936,-3.5932,-3.5999,-3.6007,-3.603,-3.6142,-3.6146,-3.6049,-3.6053,-3.6055,-3.6057,0,0,0,0,0,0,0,-3.5776,-3.5791,-3.5939,-3.5896,-3.5896,-3.5883,-3.5892,-3.5965,-3.598,-3.5927,-3.5923,-3.5934,-3.5998,-3.6024,-3.6032,-3.6147,-3.6049,-3.6054,-3.6058,-3.6061,-3.6351,-3.6355,0,0,0,0,0,0,-3.5772,-3.5786,-3.5936,-3.5941,-3.5829,-3.589,-3.5899,-3.5937,-3.598,-3.5983,-3.5937,-3.5931,-3.6014,-3.6024,-3.6034,-3.6164,-3.6055,-3.6062,-3.6065,-3.6347,-3.6352,-3.6356,0,0,0,0,0,0,-3.5768,-3.5786,-3.5933,-3.5863,-3.5881,-3.5897,-3.594,-3.5941,-3.5966,-3.5988,-3.599,-3.596,-3.6012,-3.6025,-3.6113,-3.6166,-3.6064,-3.607,-3.6343,-3.6349,-3.6354,-3.6426,0,0,0,0,0,0,-3.5762,-3.5784,-3.5828,-3.5864,-3.5885,-3.6011,-3.5944,-3.5945,-3.5978,-3.5972,-3.601,-3.6013,-3.601,-3.6103,-3.6119,-3.6173,-3.6076,-3.6338,-3.6346,-3.6352,-3.6419,-3.6433,-3.6446,0,0,0,0,0,-3.5755,-3.5844,-3.583,-3.5848,-3.5939,-3.6014,-3.6026,-3.6022,-3.5983,-3.6025,-3.6039,-3.6012,-3.6158,-3.6112,-3.613,-3.6187,-3.6335,-3.6343,-3.6352,-3.6413,-3.6431,-3.6446,0,0,0,0,0,0,-3.5812,-3.5849,-3.5833,-3.5938,-3.5973,-3.6006,-3.606,-3.6041,-3.6088,-3.608,-3.6072,-3.6081,-3.6172,-3.6188,-3.6137,-3.6295,-3.624,-3.6253,-3.628,-3.6298,-3.6311,-3.6304,-3.6081,0,0,0,0,0,-3.5837,-3.5897,-3.5925,-3.6014,-3.6033,-3.6044,-3.6076,-3.607,-3.6106,-3.6121,-3.614,-3.6175,-3.6229,-3.6264,-3.6315,-3.6422,-3.6428,-3.6469,-3.6483,-3.6494,-3.6504,-3.6559,-3.6577,-3.6384,-3.6384,-3.6384,0,0,-3.5889,-3.5917,-3.5954,-3.6026,-3.6053,-3.6113,-3.6056,-3.6123,-3.6166,-3.613,-3.6214,-3.623,-3.6268,-3.6365,-3.6408,-3.6382,-3.6559,-3.6505,-3.6514,-3.6518,-3.657,-3.6588,-3.6604,-3.639,-3.6389,-3.6388,0,0,-3.6014,-3.6042,-3.6118,-3.6146,-3.6188,-3.6194,-3.6213,-3.6248,-3.6258,-3.6342,-3.6315,-3.6367,-3.646,-3.6488,-3.6514,-3.6649,-3.6625,-3.6666,-3.6735,-3.6789,-3.6804,-3.6818,-3.6863,-3.688,-3.6676,-3.6676,-3.6676,0,-3.6073,-3.6163,-3.6159,-3.6227,-3.6259,-3.623,-3.6306,-3.6333,-3.6389,-3.6411,-3.638,-3.6496,-3.652,-3.6621,-3.6654,-3.6677,-3.6696,-3.666,-3.6803,-3.6816,-3.6829,-3.6872,-3.6889,-3.6681,-3.668,-3.668,-3.6679,0,-3.6232,-3.6295,-3.6352,-3.6407,-3.6445,-3.6517,-3.6522,-3.6561,-3.6552,-3.6561,-3.6645,-3.6673,-3.6728,-3.6752,-3.6744,-3.6853,-3.6834,-3.6804,-3.6748,-3.6852,-3.6892,-3.6909,-3.6687,-3.6686,-3.6684,-3.6683,0,0,-3.6394,-3.6447,-3.6467,-3.6491,-3.6535,-3.6583,-3.6653,-3.6707,-3.6739,-3.6779,-3.6836,-3.6915,-3.6887,-3.6917,-3.6911,-3.6959,-3.706,-3.6922,-3.6922,-3.6944,-3.7179,-3.72,-3.722,-3.7046,-3.7049,-3.7051,-3.7175,0,-3.652,-3.6643,-3.6641,-3.6754,-3.6811,-3.6785,-3.6845,-3.6877,-3.6888,-3.6936,-3.6947,-3.7003,-3.6962,-3.698,-3.7026,-3.7038,-3.7107,-3.703,-3.7096,-3.7098,-3.7085,-3.7241,-3.7264,-3.7379,-3.7191,-3.7194,-3.7196,0,-3.6683,-3.6728,-3.6847,-3.6881,-3.6905,-3.696,-3.7009,-3.7056,-3.7092,-3.7096,-3.7129,-3.7116,-3.7184,-3.7129,-3.7222,-3.7169,-3.7196,-3.7207,-3.7211,-3.7215,-3.7152,-3.7247,-3.7416,-3.7433,-3.7221,-3.7219,-3.7217,0,-3.6786,-3.6877,-3.696,-3.6981,-3.7024,-3.7062,-3.7082,-3.7114,-3.7146,-3.7189,-3.7209,-3.726,-3.7286,-3.7325,-3.7324,-3.7284,-3.7418,-3.7362,-3.7421,-3.7421,-3.7448,-3.7446,-3.7622,-3.747,-3.747,-3.747,-3.7469,0,-3.6926,-3.6999,-3.7007,-3.7057,-3.7138,-3.7134,-3.7214,-3.7229,-3.7258,-3.731,-3.729,-3.7338,-3.7336,-3.7385,-3.7385,-3.7461,-3.7474,-3.7477,-3.7476,-3.7478,-3.7477,-3.7494,-3.7485,-3.7474,-3.7473,-3.7472,-3.7471,0,-3.7054,-3.7063,-3.715,-3.7183,-3.7193,-3.7251,-3.7278,-3.7325,-3.7334,-3.7399,-3.7415,-3.7428,-3.7484,-3.7488,-3.7553,-3.7553,-3.7644,-3.7635,-3.7632,-3.763,-3.7687,-3.7681,-3.7878,-3.7902,-3.7737,-3.7739,-3.774,0,-3.7141,-3.7197,-3.7236,-3.727,-3.7291,-3.7346,-3.7379,-3.7378,-3.7413,-3.7457,-3.7498,-3.7553,-3.7596,-3.7687,-3.7701,-3.775,-3.7741,-3.7806,-3.7748,-3.7747,-3.7738,-3.7734,-3.7739,-3.7817,-3.7819,-3.782,-3.7821,0,-3.7294,-3.7295,-3.7344,-3.7395,-3.7435,-3.7475,-3.7511,-3.754,-3.7543,-3.7583,-3.7641,-3.7674,-3.7741,-3.7794,-3.7842,-3.786,-3.784,-3.784,-3.7856,-3.7857,-3.7852,-3.7853,-3.7661,-3.7835,-3.7834,-3.7833,-3.7832,-3.7831,-3.7402,-3.745,-3.7485,-3.7539,-3.7567,-3.7602,-3.7647,-3.7662,-3.771,-3.7765,-3.7761,-3.7824,-3.7857,-3.7919,-3.7941,-3.7989,-3.7967,-3.799,-3.7995,-3.8001,-3.8005,-3.7846,-3.7998,-3.7998,-3.7997,-3.7997,-3.7997,0,-3.7552,-3.7573,-3.7624,-3.7676,-3.7719,-3.7699,-3.7738,-3.7775,-3.7831,-3.7864,-3.7907,-3.7972,-3.8024,-3.8043,-3.8092,-3.8127,-3.8119,-3.814,-3.8136,-3.814,-3.8024,-3.8004,-3.8145,-3.8145,-3.8145,-3.8145,-3.8145,-3.8145,-3.7634,-3.7713,-3.7718,-3.781,-3.783,-3.7893,-3.7917,-3.7948,-3.7974,-3.8048,-3.8091,-3.8103,-3.813,-3.8181,-3.8227,-3.8231,-3.8249,-3.8273,-3.8273,-3.8164,-3.8149,-3.8134,-3.8116,-3.8278,-3.8278,-3.8385,-3.8386,-3.8387]}]]